User: anonymous   Login
Location: Cincinnati Observatory Center
(39.1389°N, 84.4225°W)
Time: 03:36:38
(UTC-04:00)
Language:

Hubble Space Telescope - Orbit

View from above orbital plane
View from above orbital plane
View from above satellite
View from above satellite

Ground track
Ground track

The orbit data is extracted from the following two-line orbital elements,

1 20580U 90037B   16178.50736911  .00000508  00000-0  20563-4 0  9992
2 20580  28.4687 197.1701 0002561 312.1565 178.5189 15.08404467236521
Epoch (UTC): 26 June 2016 12:10:36
Eccentricity: 0.0002561
inclination: 28.4687°
perigee height: 539 km
apogee height: 543 km
right ascension of ascending node: 197.1701°
argument of perigee: 312.1565°
revolutions per day: 15.08404467
mean anomaly at epoch: 178.5189°
orbit number at epoch: 23652

The dashed part of the orbit path shows where the satellite is in the earth's shadow,  

DLR